Owatonna, Minnesota, United States (55060)
Lat: 44.08N, Lon: 93.23W
Wx Zone: MNZ085
Local Info
Past Weather Observations for Today

NOTE: This archive is for the closest National Weather Service station to Owatonna. Information may differ from the station used for current weather conditions.

Click here for Long-term Archive

Time Weather Temperature Dewpoint Humidity Pressure Winds Precip Visibility
11:15
Clear
72°F / 22°C 52°F / 11°C 50% 30.09 in
(1019 mb)
SSE 9.2 mph
(SSE 15 kph)
- 10SM
10:55
Clear
70°F / 21°C 54°F / 12°C 57% 30.09 in
(1019 mb)
SSE 9.2 mph
(SSE 15 kph)
- 10SM
10:35
Clear
70°F / 21°C 54°F / 12°C 57% 30.09 in
(1019 mb)
SSE 12.7 mph
(SSE 20 kph)
- 10SM
10:15
Clear
70°F / 21°C 54°F / 12°C 57% 30.09 in
(1019 mb)
S 10.4 mph
(S 17 kph)
- 10SM
09:55
Clear
68°F / 20°C 55°F / 13°C 64% 30.09 in
(1019 mb)
SSE 6.9 mph
(SSE 11 kph)
- 10SM
09:35
Clear
66°F / 19°C 55°F / 13°C 68% 30.09 in
(1019 mb)
SSE 6.9 mph
(SSE 11 kph)
- 10SM
09:15
Clear
64°F / 18°C 55°F / 13°C 73% 30.09 in
(1019 mb)
SSE 6.9 mph
(SSE 11 kph)
- 10SM
08:55
Clear
63°F / 17°C 55°F / 13°C 77% 30.09 in
(1019 mb)
SSE 3.5 mph
(SSE 6 kph)
- 10SM
08:35
Clear
61°F / 16°C 54°F / 12°C 77% 30.09 in
(1019 mb)
SE 3.5 mph
(SE 6 kph)
- 10SM
08:15
Clear
59°F / 15°C 52°F / 11°C 77% 30.09 in
(1019 mb)
Calm - 10SM
07:55
Clear
55°F / 13°C 52°F / 11°C 88% 30.09 in
(1019 mb)
ESE 3.5 mph
(ESE 6 kph)
- 10SM
07:35
Clear
55°F / 13°C 50°F / 10°C 82% 30.09 in
(1019 mb)
SE 4.6 mph
(SE 7 kph)
- 10SM
07:15
Clear
54°F / 12°C 50°F / 10°C 88% 30.09 in
(1019 mb)
Calm - 10SM
06:55
Clear
52°F / 11°C 48°F / 9°C 88% 30.09 in
(1019 mb)
Calm - 10SM
06:35
Clear
50°F / 10°C 46°F / 8°C 88% 30.09 in
(1019 mb)
Calm - 10SM
06:15
Clear
48°F / 9°C 46°F / 8°C 94% 30.06 in
(1018 mb)
E 3.5 mph
(E 6 kph)
- 10SM
05:55
Clear
48°F / 9°C 46°F / 8°C 94% 30.06 in
(1018 mb)
Calm - 10SM
05:35
Clear
48°F / 9°C 46°F / 8°C 94% 30.06 in
(1018 mb)
SE 4.6 mph
(SE 7 kph)
- 10SM
05:15
Clear
48°F / 9°C 46°F / 8°C 94% 30.06 in
(1018 mb)
ESE 4.6 mph
(ESE 7 kph)
- 10SM
04:55
Clear
48°F / 9°C 46°F / 8°C 94% 30.06 in
(1018 mb)
E 4.6 mph
(E 7 kph)
- 10SM
04:35
Clear
48°F / 9°C 46°F / 8°C 94% 30.06 in
(1018 mb)
E 3.5 mph
(E 6 kph)
- 10SM
04:15
Clear
48°F / 9°C 46°F / 8°C 94% 30.06 in
(1018 mb)
Calm - 10SM
03:55
Clear
48°F / 9°C 46°F / 8°C 94% 30.04 in
(1017 mb)
Calm - 10SM
03:35
Clear
50°F / 10°C 46°F / 8°C 88% 30.04 in
(1017 mb)
Calm - 10SM
03:15
Clear
48°F / 9°C 46°F / 8°C 94% 30.04 in
(1017 mb)
Calm - 10SM
02:55
Clear
52°F / 11°C 48°F / 9°C 88% 30.04 in
(1017 mb)
Calm - 10SM
02:35
Clear
48°F / 9°C 46°F / 8°C 94% 30.04 in
(1017 mb)
Calm - 10SM
02:15
Clear
48°F / 9°C 46°F / 8°C 94% 30.04 in
(1017 mb)
Calm - 10SM
01:55
Clear
46°F / 8°C 46°F / 8°C 100% 30.04 in
(1017 mb)
Calm - 10SM
01:35
Clear
48°F / 9°C 46°F / 8°C 94% 30.04 in
(1017 mb)
Calm - 10SM
01:15
Clear
48°F / 9°C 46°F / 8°C 94% 30.04 in
(1017 mb)
Calm - 7SM
00:55
Clear
46°F / 8°C 45°F / 7°C 93% 30.04 in
(1017 mb)
Calm - 7SM
00:35
Clear
50°F / 10°C 48°F / 9°C 94% 30.04 in
(1017 mb)
Calm - 10SM
00:15
Clear
52°F / 11°C 50°F / 10°C 94% 30.04 in
(1017 mb)
Calm - 10SM
Time Weather Temperature Dewpoint Humidity Pressure Winds Precip Visibility


Weather for websites

WeatherForYou.com, LLC is not responsible for any damages or problems caused by this service. Current weather conditions are obtained from the closest station including government and personal stations which may have varying degrees of accuracy. Weather forecasts are derived from the NOAA NDFD. Like all things, this site belongs to Jesus Christ... He just trusts me to maintain it. If you have any questions or comments email webmaster@weatherforyou.com

Copyright © 2014, WeatherForYou.com LLC. All rights reserved.